SCP
0 0 0 0 0 0 0 0 0 0 0 0 0 0 0 0 0 0 0 0 0 0 0 0 0 0 0 0 0 0 0 0 0 0 0 0 0 0 0 0 0 0 0 0
0 0 0 0 0 0 0 0 0 0 0 0 0 0 0 0 0 0 0 0 0 0 0 0 0 0 0 0 0 0 0 0 0 0 0 0 0 0 0 0 0 0 0 0
0 0 0 0 0 0 0 0 0 0 0 0 0 0 0 0 0 0 0 0 0 0 0 0 0 0 0 0 0 0 0 0 0 0 0 0 0 0 0 0 0 0 0 0
0 0 0 0 0 0 0 0 0 0 0 0 0 0 0 0 0 0 0 0 0 0 0 0 0 0 0 0 0 0 0 0 0 0 0 0 0 0 0 0 0 0 0 0
0 0 0 0 0 0 0 0 0 0 0 0 0 0 0 0 0 0 0 0 0 0 0 0 0 0 0 0 0 0 0 0 0 0 0 0 0 0 0 0 0 0 0 0
0 0 0 0 0 0 0 0 0 0 0 0 0 0 0 0 0 0 0 0 0 0 0 0 0 0 0 0 0 0 0 0 0 0 0 0 0 0 0 0 0 0 0 0
0 0 0 0 0 0 0 0 0 0 0 0 0 0 0 0 0 0 0 0 0 0 0 0 0 0 0 0 0 0 0 0 0 0 0 0 0 0 0 0 0 0 0 0
0 0 0 0 0 0 0 0 0 0 0 0 0 0 0 0 0 0 0 0 0 0 0 0 0 0 0 0 0 0 0 0 0 0 0 0 0 0 0 0 0 0 0 0
0 0 0 0 0 0 0 0 0 0 0 0 0 0 0 0 0 0 0 0 0 0 0 0 0 0 0 0 0 0 0 0 0 0 0 0 0 0 0 0 0 0 0 0
0 0 0 0 0 0 0 0 0 0 0 0 0 0 0 0 0 0 0 0 0 0 0 0 0 0 0 0 0 0 0 0 0 0 0 0 -0 -0 0 0 0 0 0 0
0 0 0 0 0 0 0 0 0 0 0 0 0 0 0 0 0 0 0 0 0 0 0 0 0 0 0 0 0 0 0 0 0 0 0 0 0 0 0 0 0 0 0 0
0 0 0 0 0 0 0 0 0 0 0 0 0 0 0 0 0 0 0 0 0 0 0 0 0 0 0 0 0 0 0 0 0 0 0 0 0 0 0 0 0 0 0 0
0 0 0 0 0 0 0 0 0 0 0 0 0 0 0 0 0 0 0 0 0 0 0 0 0 0 0 0 0 0 0 0 0 0 0 0 0 0 0 0 0 0 0 0
0 0 0 0 0 0 0 0 0 0 0 0 0 0 0 0 0 0 0 0 0 0 0 0 0 0 0 0 0 0 0 0 0 0 0 0 0 -0 -0 0 0 0 0 0
0 0 0 0 0 0 0 0 0 0 0 0 0 0 0 0 0 0 0 0 0 0 0 0 0 0 0 0 0 0 0 0 0 0 0 0 0 -0 -0 -0 0 0 0 0
0 0 0 0 0 0 0 0 0 0 0 0 0 0 0 0 0 0 0 0 0 0 0 0 0 0 0 0 0 0 0 0 0 0 0 0 0 -0 -0 -0 0 0 0 0
0 0 0 0 0 0 0 0 0 0 0 0 0 0 0 0 0 0 0 0 0 0 0 0 0 0 -0 0 0 0 0 0 0 0 0 0 0 0 0 0 0 0 0 0
0 0 0 0 0 0 0 0 0 0 0 0 0 0 0 0 0 0 0 0 0 0 0 0 0 0 -0 0 0 0 0 0 0 0 0 0 0 0 0 0 0 0 0 0
0 0 0 0 0 0 0 0 0 0 0 0 0 0 0 0 0 0 0 0 0 0 0 0 0 0 -0 0 0 0 0 0 0 0 0 0 0 0 0 0 0 0 0 0
0 0 0 0 0 0 0 0 0 0 0 0 0 0 0 0 0 0 0 0 0 0 0 0 0 0 0 0 0 0 0 0 0 0 0 0 0 0 0 0 0 0 0 0
0 0 0 0 0 0 0 0 0 0 0 0 0 0 0 0 0 0 0 0 0 0 0 0 0 0 0 0 0 0 0 0 0 0 0 0 0 0 0 0 0 0 0 0
0 0 0 0 0 0 0 0 0 0 0 0 0 0 0 0 0 0 0 0 0 0 0 0 0 0 0 0 0 0 0 0 0 0 0 0 0 0 0 0 0 0 0 0
0 0 0 0 0 0 0 0 0 0 0 0 0 0 0 0 0 0 0 0 0 0 0 0 0 0 0 0 0 0 0 0 0 0 0 0 0 0 0 0 0 0 0 0
0 0 0 0 0 0 0 0 0 0 0 0 0 0 0 0 0 0 0 0 0 0 0 0 0 0 0 0 0 0 0 0 0 0 0 0 0 0 0 0 0 0 0 0
0 0 0 0 0 0 0 0 0 0 0 0 0 0 0 0 0 0 0 0 0 0 0 0 0 0 0 0 0 0 0 0 0 0 0 0 0 0 0 0 0 0 0 0
0 0 0 0 0 0 0 0 0 0 0 0 0 0 0 0 0 0 0 0 0 0 0 0 0 0 0 0 0 0 0 0 0 0 0 0 0 0 0 0 0 0 0 0
0 0 0 0 0 0 0 0 0 0 0 0 0 0 0 0 0 0 0 0 0 0 0 0 0 0 0 0 0 0 0 0 0 0 0 0 0 0 0 0 0 0 0 0
Wind_Speed
2 1 1 2 2 3 5 6 7 5 3 4 5 4 5 6 7 9 10 11 10 8 7 6 5 4 4 4 4 4 5 8 9 8 7 7 7 7 6 6 6 5 5 4
1 1 0 2 3 2 2 2 3 2 1 2 2 2 5 7 8 9 10 10 10 9 9 8 7 6 5 4 4 3 5 8 7 6 7 7 8 7 6 6 6 5 6 5
2 3 2 3 3 2 2 1 3 4 3 1 2 4 5 5 7 7 8 8 9 9 8 8 7 6 5 5 3 3 5 6 5 6 7 8 8 7 8 8 7 7 7 6
1 1 3 4 1 4 5 2 1 2 1 1 1 1 3 4 5 7 8 9 9 9 9 8 8 7 6 4 2 3 4 5 5 5 7 7 7 9 9 7 7 8 8 8
3 2 3 3 0 2 3 1 1 1 1 1 1 2 4 5 5 5 5 6 6 6 7 8 9 9 7 5 4 3 4 5 6 6 7 6 8 10 9 7 8 8 7 8
4 3 5 5 2 1 4 1 2 1 0 1 3 3 3 5 5 5 6 6 6 7 7 8 9 8 7 6 6 6 7 7 6 6 7 8 9 9 7 8 9 8 8 8
4 3 6 4 3 2 3 4 2 1 1 1 1 3 3 4 4 4 5 6 6 6 7 7 8 7 7 7 8 9 8 7 6 6 7 8 8 6 6 7 7 8 8 8
5 4 7 1 2 3 4 2 2 1 1 1 1 1 2 3 4 5 6 6 6 6 7 7 7 7 8 8 9 9 8 8 7 7 7 6 6 6 5 6 8 8 7 7
7 6 2 0 2 2 3 2 2 2 1 1 1 2 2 3 4 4 5 5 5 5 7 7 7 6 8 10 10 10 9 9 8 8 6 6 6 6 5 5 6 7 7 8
2 3 2 1 0 0 1 2 2 2 2 1 1 2 3 3 3 4 5 6 6 6 7 8 8 7 8 9 9 9 10 10 8 7 7 6 5 5 5 6 7 7 8 8
3 4 2 2 3 2 1 1 1 1 1 2 2 2 3 3 4 4 5 5 5 6 7 8 8 8 9 9 9 9 10 9 8 7 7 6 6 6 7 8 9 10 9 8
7 6 5 5 4 3 2 3 3 2 2 2 2 3 3 3 4 4 5 5 6 6 7 8 8 9 9 9 8 9 9 9 7 7 6 6 6 7 9 10 12 14 14 12
5 4 4 4 3 3 3 3 3 2 3 3 3 3 3 3 4 4 5 6 7 7 8 8 9 9 9 9 8 8 9 10 8 7 7 7 6 6 7 8 9 11 14 15
3 2 2 3 3 3 3 3 2 2 2 3 3 3 3 4 4 5 6 7 7 8 8 8 9 9 9 9 8 9 9 11 10 8 7 7 7 7 6 6 7 6 8 13
4 4 5 3 2 2 2 1 1 2 3 3 3 3 4 4 6 7 7 7 7 8 8 9 9 10 9 8 8 9 9 8 8 8 7 8 7 7 7 7 7 6 5 6
4 3 3 3 3 3 2 2 3 4 4 4 4 5 5 5 6 7 7 6 6 8 9 9 10 10 9 8 8 8 8 15 15 9 8 7 7 7 7 7 7 6 7 6
5 4 4 4 4 4 5 5 6 6 5 5 6 6 6 6 7 7 8 7 7 8 9 9 11 11 10 9 8 7 7 10 17 11 8 8 7 7 7 7 7 8 8 7
8 8 7 7 6 6 6 6 6 6 6 7 6 6 6 7 8 9 9 8 8 9 10 10 10 10 9 9 8 7 7 8 8 9 9 8 8 8 7 8 8 9 7 6
6 7 6 7 6 6 6 6 7 6 6 6 6 7 7 8 8 8 8 8 8 10 10 9 15 12 10 11 13 7 7 9 9 9 9 11 10 8 8 8 8 8 7 6
5 5 5 6 6 5 6 6 6 6 6 6 6 7 8 8 8 8 8 8 8 9 10 11 11 10 10 10 14 7 8 9 10 9 9 9 9 9 8 8 8 8 7 7
5 5 5 5 5 6 6 6 6 7 7 6 7 8 9 9 8 7 7 9 10 10 10 15 10 8 8 10 14 7 7 9 9 9 9 9 9 9 9 8 8 8 7 7
4 5 5 5 5 6 6 5 6 7 7 7 8 8 8 9 9 8 8 8 10 13 10 7 7 12 15 16 7 7 8 9 9 9 9 9 9 9 9 9 8 8 7 7
4 5 5 6 6 6 6 6 7 7 8 9 9 9 9 8 6 6 9 8 7 13 10 8 13 20 23 12 7 7 8 9 9 9 9 9 9 9 9 9 8 8 7 6
5 5 6 5 4 4 7 8 8 7 7 8 8 9 8 7 7 7 8 12 16 17 9 12 20 22 20 8 7 7 8 9 9 9 9 9 8 9 8 8 7 7 7 7
5 5 5 5 5 6 8 8 7 7 7 7 8 9 7 6 7 8 7 9 15 16 9 13 20 21 12 7 8 8 8 9 10 9 8 8 8 8 8 7 6 6 5 5
6 6 6 6 6 6 6 5 5 6 5 6 7 7 6 6 7 7 7 9 11 15 11 8 9 12 8 8 9 9 9 10 11 9 8 8 8 8 7 6 6 5 4 4
5 5 4 5 6 6 6 6 6 7 7 6 7 7 7 7 7 7 8 8 8 9 8 8 8 8 8 8 8 9 8 8 8 8 7 7 6 6 6 6 5 4 3 3
Wind_Direction
213 236 219 235 234 183 181 186 187 221 210 278 310 324 336 350 2 12 8 5 1 355 347 342 335 321 298 272 254 230 217 218 224 223 219 217 215 213 211 210 213 211 211 218
327 19 320 269 274 232 202 190 189 155 235 276 316 12 20 14 15 13 2 356 354 353 351 345 333 319 310 292 272 236 229 232 230 223 218 217 218 214 210 213 214 208 211 214
255 310 9 290 266 163 118 78 151 171 222 275 17 30 27 15 17 10 357 353 352 348 341 334 327 312 301 293 279 243 244 245 235 224 224 223 219 212 214 213 208 210 214 212
146 52 232 250 350 123 112 67 92 141 176 199 211 147 56 34 20 6 357 353 348 344 340 334 332 328 314 314 297 263 261 260 244 231 233 229 218 219 221 213 208 212 215 213
123 164 281 288 158 149 136 73 354 120 35 355 342 64 15 16 13 357 345 340 335 333 331 336 342 339 334 332 321 299 284 274 261 239 236 230 227 229 222 212 213 212 211 208
129 161 231 241 277 276 118 239 284 131 104 15 65 49 304 341 350 346 344 341 340 340 347 351 344 343 347 337 330 309 292 281 276 256 240 236 234 234 225 215 219 214 217 212
153 203 256 263 294 87 146 235 233 174 164 112 139 204 259 319 335 336 337 338 341 346 350 341 338 346 346 339 325 308 301 291 281 269 252 244 240 239 229 219 217 215 218 218
150 188 246 285 84 144 200 200 167 164 161 146 196 260 302 320 326 335 340 341 343 346 339 334 339 346 340 329 316 314 308 295 284 275 267 260 245 242 231 217 216 218 219 225
185 205 227 250 170 184 157 165 200 186 209 173 203 276 301 313 319 324 329 331 332 332 329 331 335 338 330 319 320 323 319 304 292 287 274 263 247 241 235 218 218 221 216 223
239 254 251 269 163 170 168 186 202 193 202 193 228 266 290 301 311 320 324 323 324 329 331 327 326 324 314 313 318 320 319 312 300 292 287 274 259 243 232 224 223 223 221 224
248 267 299 280 257 231 212 193 194 213 223 223 232 273 276 288 297 302 308 311 315 317 314 312 315 315 314 315 319 319 315 312 308 294 285 276 263 249 242 235 225 220 223 219
218 213 194 230 234 216 206 227 225 227 262 273 248 255 268 274 280 289 297 301 307 307 306 307 310 311 312 314 315 315 315 313 309 302 293 281 276 282 265 255 252 241 230 220
210 202 198 222 221 208 210 231 234 228 235 261 271 260 264 272 279 286 291 295 295 295 297 300 304 306 307 310 312 310 306 306 304 301 297 288 277 271 283 288 268 252 240 228
211 160 197 214 223 224 218 228 225 250 263 255 260 273 277 280 287 292 291 289 288 290 293 295 296 297 298 303 307 305 303 304 304 294 290 284 275 268 263 266 275 273 250 234
213 196 201 213 217 218 209 191 231 266 270 273 268 272 277 282 285 287 289 290 292 293 294 295 295 294 298 302 304 303 303 299 296 291 285 281 277 273 267 260 260 265 267 244
202 186 179 182 208 230 230 223 232 250 256 261 269 271 273 272 276 282 286 290 293 294 296 296 294 292 296 299 300 301 300 306 310 300 290 285 278 274 271 265 261 256 248 235
172 194 199 209 223 232 229 229 231 239 247 253 259 265 274 281 285 285 286 285 279 279 282 284 285 290 293 291 291 292 293 300 307 306 292 283 276 271 269 266 260 256 251 230
198 203 200 200 208 223 234 237 238 240 242 249 260 265 267 268 270 276 281 287 291 290 285 279 281 288 287 288 289 285 287 290 292 292 291 288 282 275 271 267 264 261 259 236
209 212 215 216 217 217 226 236 241 243 248 253 254 257 260 263 266 272 279 284 286 288 286 281 295 300 291 289 295 283 284 289 292 290 289 288 286 277 272 269 266 263 254 235
217 218 219 227 229 226 234 243 246 251 254 252 255 263 269 271 271 274 277 274 267 265 274 285 290 284 283 285 294 283 281 285 288 288 289 286 282 279 273 271 269 262 252 239
223 226 229 234 242 246 243 243 244 253 260 255 251 257 264 270 272 273 275 281 278 273 277 288 289 283 285 288 293 281 279 284 285 284 285 286 284 280 275 270 268 263 252 243
226 228 236 242 248 259 258 249 245 253 261 261 259 260 265 271 275 275 265 262 272 283 287 278 277 285 293 297 284 279 279 282 284 281 280 281 281 279 276 271 267 264 254 242
231 234 241 244 244 253 266 262 253 251 253 255 257 258 259 262 264 268 279 274 272 286 291 278 283 293 300 300 282 278 279 281 282 281 279 278 278 276 274 271 266 264 257 243
240 243 245 249 248 255 264 265 260 254 253 256 256 255 256 266 271 260 258 279 288 293 288 282 289 295 301 294 281 278 278 279 280 278 278 277 276 274 271 267 264 263 255 240
243 248 250 246 246 250 254 260 266 266 263 262 262 261 256 245 250 266 272 274 282 290 287 288 294 298 298 285 281 280 279 278 280 281 276 277 276 276 272 265 259 258 251 235
241 242 243 239 240 248 251 248 251 257 258 265 269 265 263 261 259 265 270 272 274 284 285 282 284 289 285 282 281 280 280 285 288 285 279 278 278 278 274 267 256 253 246 226
246 248 252 260 257 247 242 238 242 250 248 248 260 264 264 266 269 270 272 275 278 279 279 279 278 278 279 280 280 280 280 280 280 280 278 276 275 275 271 267 257 246 227 205